Skip Page Navigation
NASA JPL Caltech
NASA Logo - Jet Propulsion Laboratory + View the NASA Portal
+ Center for Near-Earth Object Studies
JPL Home Earth Solar System Stars & Galaxies Technology
JPL Solar System Dynamics
BODIES ORBITS EPHEMERIDES TOOLS PHYSICAL DATA DISCOVERY FAQ SITE MAP
JPL Small-Body Database Browser
Search: [ help ]  
215731 (2004 CZ58)
Classification: Main-belt Asteroid          SPK-ID: 2215731
Ephemeris | Orbit Diagram | Orbital Elements | Mission Design | Physical Parameters | Discovery Circumstances | Close-Approach Data ]

[ hide orbit diagram ]

For accurate long-term ephemerides, please instead use our Horizons system.This orbit viewer was implemented using two-body methods, and hence should not be used for determining accurate long-term trajectories (over several years or decades) or planetary encounter circumstances.


[ revert to old Java-based viewer ]

Orbital Elements at Epoch 2459000.5 (2020-May-31.0) TDB
Reference: JPL 13 (heliocentric ecliptic J2000)
 Element Value Uncertainty (1-sigma)   Units 
e .0628976690314165 5.0425e-08  
a 2.578008943966456 2.0702e-08 au
q 2.415858190648823 1.2704e-07 au
i 15.51954330009857 5.5438e-06 deg
node 121.6097395448569 1.9605e-05 deg
peri 98.92963312202097 4.7993e-05 deg
M 262.8047139223833 4.6373e-05 deg
tp 2459408.695072705633
(2021-Jul-13.19507271)
0.00019625 TDB
period 1511.906925781139
4.14
1.8212e-05
4.986e-08
d
yr
n .2381098954315611 2.8682e-09 deg/d
Q 2.74015969728409 2.2005e-08 au
  Orbit Determination Parameters
   # obs. used (total)      279  
   data-arc span      7297 days (19.98 yr)  
   first obs. used      2000-02-03  
   last obs. used      2020-01-26  
   planetary ephem.      DE431  
   SB-pert. ephem.      SB431-N16  
   condition code      0  
   norm. resid. RMS      .58943  
   source      ORB  
   producer      Otto Matic  
   solution date      2020-Feb-25 03:26:35  

Additional Information
 Earth MOID = 1.45847 au 
 Jupiter MOID = 2.38775 au 
 T_jup = 3.372 
[ show covariance matrix ]

Ephemeris | Orbit Diagram | Orbital Elements | Mission Design | Physical Parameters | Discovery Circumstances | Close-Approach Data ]

Physical Parameter Table
Parameter Symbol Value Units Sigma Reference Notes
absolute magnitude H 15.9   n/a MPO413071  

215731 (2004 CZ58)          Discovered 2004-Feb-10 by NEAT at Palomar
Reference: 20090607/Numbers.arcLast Updated: 2009-06-08

[ show close-approach data ]
Ephemeris | Orbit Diagram | Orbital Elements | Mission Design | Physical Parameters | Discovery Circumstances | Close-Approach Data ]
ABOUT SSD CREDITS/AWARDS PRIVACY/COPYRIGHT GLOSSARY LINKS
FirstGov 2020-Aug-07 02:17 UT
(server date/time)  
NASA Home Page
Site Manager:   Ryan S. Park
Webmaster  Alan B. Chamberlin